Weather History for Culdrose, United Kingdom

Change the Weather History Date:

Wednesday, November 16, 2011

  Actual Average Record
Temperature  
Mean Temperature 53 °F -  
Max Temperature 55 °F 49 °F 59 °F (1997)
Min Temperature 51 °F 41 °F 32 °F (1998)
Degree Days  
Heating Degree Days 12    
Growing Degree Days 3 (Base 50)    
Moisture  
Dew Point 52 °F    
Average Humidity 94    
Maximum Humidity 100    
Minimum Humidity 77    
Precipitation  
Precipitation 0.47 in - - ()
Sea Level Pressure  
Sea Level Pressure 29.91 in    
Wind  
Wind Speed 8 mph ()    
Max Wind Speed 14 mph    
Max Gust Speed -    
Visibility 4.4 miles    
Events Rain    
Averages and records for this station are not official NWS values.
T = Trace of Precipitation, MM = Missing Value Source: Averaged Metar Reports

Daily Weather History Graph

Daily Weather History Graph

Search for Another Location

Airport:

Trip Planner

Search our weather history database for the weather conditions in past years. The results will help you decide how hot, cold, wet, or windy it might be!

Date:

Astronomy

Nov. 16, 2011 Rise Set
Actual Time 7:35 AM GMT 4:35 PM GMT
Civil Twilight 6:59 AM GMT 5:11 PM GMT
Nautical Twilight 6:19 AM GMT 5:51 PM GMT
Astronomical Twilight 5:41 AM GMT 6:29 PM GMT
Moon 9:37 PM GMT (11/16) 12:01 PM GMT (11/16)
Length of Visible Light 10h 12m
Length of Day
9h 00m
Waning Gibbous, 72% of the Moon is Illuminated
Nov 16
Waning Gibbous
Nov 18
Last Quarter
Nov 25
New
Dec 2
First Quarter
Dec 10
Full

Hourly Weather History & Observations

Time (GMT) Temp. Dew Point Humidity Pressure Visibility Wind Dir Wind Speed Gust Speed Precip Events Conditions
12:50 AM 55.4 °F 53.6 °F 94% 29.89 in 5.0 mi ESE 13.8 mph - N/A   Haze
1:50 AM 55.4 °F 53.6 °F 94% 29.89 in 5.0 mi SE 10.4 mph - N/A   Haze
2:50 AM 54 °F 53 °F 95% 29.90 in 4 mi SE 9.2 mph - -   Mist
2:50 AM 53.6 °F 53.6 °F 100% 29.89 in 3.7 mi SE 9.2 mph - N/A   Mostly Cloudy
3:50 AM 53.6 °F 53.6 °F 100% 29.89 in 3.7 mi ESE 8.1 mph - N/A   Mostly Cloudy
4:50 AM 55.4 °F 53.6 °F 94% 29.89 in 5.0 mi SE 9.2 mph - N/A   Haze
5:50 AM 55 °F 53 °F 92% 29.90 in 4 mi SE 10.4 mph - -   Haze
5:50 AM 55.4 °F 53.6 °F 94% 29.89 in 4.3 mi SE 10.4 mph - N/A   Haze
6:50 AM 55.4 °F 53.6 °F 94% 29.89 in 3.1 mi SE 6.9 mph - N/A   Overcast
7:50 AM 55.4 °F 53.6 °F 94% 29.92 in 1.2 mi SE 8.1 mph - N/A   Mostly Cloudy
8:50 AM 55 °F 54 °F 95% 29.92 in 1 mi SE 6.9 mph - - Rain Light Rain
8:50 AM 55.4 °F 53.6 °F 94% 29.92 in 1.1 mi SE 6.9 mph - N/A Rain Light Rain
9:50 AM 55.4 °F 53.6 °F 94% 29.92 in 1.1 mi SE 10.4 mph - N/A Rain Light Rain
10:50 AM 55.4 °F 53.6 °F 94% 29.92 in 0.7 mi ESE 8.1 mph - N/A Rain Rain
11:50 AM 55 °F 54 °F 95% 29.91 in 1 mi South 4.6 mph - - Rain Rain
11:50 AM 55.4 °F 53.6 °F 94% 29.89 in 0.9 mi South 4.6 mph - N/A Rain Rain
12:50 PM 53.6 °F 53.6 °F 100% 29.89 in 1.2 mi SW 6.9 mph - N/A Rain Light Rain
1:50 PM 53.6 °F 53.6 °F 100% 29.89 in 1.2 mi WSW 5.8 mph - N/A Rain Light Rain
2:50 PM 53 °F 52 °F 97% 29.89 in 7 mi South 2.3 mph - - Rain Light Rain
2:50 PM 53.6 °F 51.8 °F 94% 29.86 in 6.2 mi South 2.3 mph - N/A Rain Light Rain
3:50 PM 53.6 °F 51.8 °F 94% 29.89 in 6.2 mi SSE 4.6 mph - N/A Rain Light Rain
4:50 PM 53.6 °F 51.8 °F 94% 29.89 in 6.2 mi SSE 3.5 mph - N/A Rain Light Rain
5:50 PM 53 °F 52 °F 97% 29.91 in 7 mi South 5.8 mph - - Rain Light Rain
5:50 PM 53.6 °F 51.8 °F 94% 29.89 in 6.2 mi South 5.8 mph - N/A   Overcast
6:50 PM 53.6 °F 51.8 °F 94% 29.89 in 6.2 mi South 4.6 mph - N/A   Mostly Cloudy
7:50 PM 53.6 °F 51.8 °F 94% 29.92 in 6.2 mi South 4.6 mph - N/A   Mostly Cloudy
8:50 PM 53 °F 52 °F 95% 29.93 in 4 mi WSW 9.2 mph - - Rain Light Rain
8:50 PM 53.6 °F 51.8 °F 94% 29.92 in 4.3 mi WSW 9.2 mph - N/A Rain Light Rain
9:50 PM 51.8 °F 50.0 °F 94% 29.92 in 6.2 mi WNW 10.4 mph - N/A   Overcast
10:50 PM 51.8 °F 48.2 °F 88% 29.95 in 6.2 mi WNW 6.9 mph - N/A   Overcast
11:50 PM 51 °F 46 °F 77% 29.99 in 16 mi WNW 11.5 mph - -   Partly Cloudy
11:50 PM 51.8 °F 46.4 °F 82% 29.98 in 6.2 mi WNW 11.5 mph - N/A   Scattered Clouds